Location: Crescent
(42.8242°N, 73.7329°W)
Time: 00:27:28
(UTC+00:00)

Vanguard 2 Rocket - Pass Details

Date: 18 February 2026
Orbit: 553 x 3286 km, 32.9° (Epoch: 9 March)

Event Time Altitude Azimuth Distance (km) Brightness Sun altitude
Rises 17:37:10 0° 240° (WSW) 7,257 12.0 35.3°
Reaches altitude 10° 17:42:23 10° 236° (SW) 6,181 11.8 35.2°
Maximum altitude 18:00:17 51° 168° (SSE) 3,099 11.0 34.5°
Drops below altitude 10° 18:12:11 10° 98° (E) 4,252 10.3 33.8°
Sets 18:15:03 0° 93° (E) 4,932 10.5 33.7°
